TimeEDT,TemperatureF,Dew PointF,Humidity,Sea Level PressureIn,VisibilityMPH,Wind Direction,Wind SpeedMPH,Gust SpeedMPH,PrecipitationIn,Events,Conditions,WindDirDegrees,DateUTC
12:17 AM,69.8,69.8,100,30.11,1.5,Calm,Calm,-,N/A,,Partly Cloudy,0,2013-06-09 04:17:00
12:20 AM,69.8,69.8,100,30.11,0.8,Calm,Calm,-,N/A,,Mist,0,2013-06-09 04:20:00
12:32 AM,71.6,69.8,94,30.10,1.0,Calm,Calm,-,N/A,,Clear,0,2013-06-09 04:32:00
12:53 AM,70.0,69.1,97,30.10,0.5,Calm,Calm,-,N/A,Fog,Fog,0,2013-06-09 04:53:00
1:11 AM,69.8,68.0,94,30.11,0.5,Calm,Calm,-,N/A,Fog,Fog,0,2013-06-09 05:11:00
1:15 AM,69.8,69.8,100,30.11,1.2,Calm,Calm,-,N/A,,Clear,0,2013-06-09 05:15:00
1:27 AM,69.8,69.8,100,30.10,0.8,Calm,Calm,-,N/A,,Mist,0,2013-06-09 05:27:00
1:37 AM,69.8,68.0,94,30.10,0.5,Calm,Calm,-,N/A,Fog,Fog,0,2013-06-09 05:37:00
1:53 AM,69.1,68.0,96,30.09,0.5,Calm,Calm,-,N/A,Fog,Fog,0,2013-06-09 05:53:00
2:15 AM,68.0,66.2,94,30.10,0.2,Calm,Calm,-,N/A,Fog,Fog,0,2013-06-09 06:15:00
2:22 AM,68.0,66.2,94,30.10,0.2,Calm,Calm,-,N/A,Fog,Fog,0,2013-06-09 06:22:00
2:53 AM,69.1,68.0,96,30.10,0.2,Calm,Calm,-,N/A,Fog,Fog,0,2013-06-09 06:53:00
3:19 AM,68.0,66.2,94,30.10,0.2,Calm,Calm,-,N/A,Fog,Fog,0,2013-06-09 07:19:00
3:42 AM,66.2,66.2,100,30.10,0.5,Calm,Calm,-,N/A,Fog,Fog,0,2013-06-09 07:42:00
3:53 AM,68.0,66.0,93,30.10,0.2,Calm,Calm,-,N/A,Fog,Fog,0,2013-06-09 07:53:00
4:38 AM,66.2,66.2,100,30.11,0.5,Calm,Calm,-,N/A,Fog,Fog,0,2013-06-09 08:38:00
4:46 AM,68.0,66.2,94,30.11,0.2,Calm,Calm,-,N/A,Fog,Fog,0,2013-06-09 08:46:00
4:53 AM,66.9,66.0,97,30.11,0.2,Calm,Calm,-,N/A,Fog,Fog,0,2013-06-09 08:53:00
5:28 AM,66.2,66.2,100,30.13,0.5,Calm,Calm,-,N/A,Fog,Fog,0,2013-06-09 09:28:00
5:36 AM,66.2,66.2,100,30.13,1.5,Calm,Calm,-,N/A,,Scattered Clouds,0,2013-06-09 09:36:00
5:40 AM,66.2,66.2,100,30.13,0.8,Calm,Calm,-,N/A,,Mist,0,2013-06-09 09:40:00
5:53 AM,66.9,66.0,97,30.13,0.2,Calm,Calm,-,N/A,Fog,Fog,0,2013-06-09 09:53:00
6:32 AM,68.0,66.2,94,30.14,1.0,Calm,Calm,-,N/A,,Mist,0,2013-06-09 10:32:00
6:41 AM,66.2,66.2,100,30.14,2.5,Calm,Calm,-,N/A,,Overcast,0,2013-06-09 10:41:00
6:47 AM,68.0,66.2,94,30.14,0.8,Calm,Calm,-,N/A,,Overcast,0,2013-06-09 10:47:00
6:53 AM,69.1,68.0,96,30.14,0.2,Calm,Calm,-,N/A,Fog,Fog,0,2013-06-09 10:53:00
7:40 AM,71.6,69.8,94,30.15,0.5,Calm,Calm,-,N/A,Fog,Fog,0,2013-06-09 11:40:00
7:53 AM,72.0,70.0,93,30.15,1.5,SSW,3.5,-,N/A,,Overcast,200,2013-06-09 11:53:00
8:06 AM,71.6,71.6,100,30.16,2.5,SSW,3.5,-,N/A,,Overcast,200,2013-06-09 12:06:00
8:17 AM,71.6,71.6,100,30.17,3.0,South,4.6,-,N/A,,Overcast,190,2013-06-09 12:17:00
8:53 AM,73.0,72.0,96,30.18,5.0,SSW,5.8,-,0.01,,Overcast,200,2013-06-09 12:53:00
9:08 AM,73.4,71.6,94,30.18,6.0,SW,8.1,-,N/A,,Overcast,220,2013-06-09 13:08:00
9:53 AM,77.0,72.0,84,30.17,8.0,Calm,Calm,-,N/A,,Mostly Cloudy,0,2013-06-09 13:53:00
10:53 AM,82.0,72.0,71,30.16,10.0,Calm,Calm,-,N/A,,Clear,0,2013-06-09 14:53:00
11:53 AM,86.0,71.1,61,30.16,10.0,Variable,4.6,-,N/A,,Clear,0,2013-06-09 15:53:00
12:53 PM,87.1,70.0,57,30.15,10.0,SW,4.6,-,N/A,,Partly Cloudy,220,2013-06-09 16:53:00
1:53 PM,87.1,69.1,55,30.12,10.0,South,5.8,-,N/A,,Partly Cloudy,190,2013-06-09 17:53:00
2:53 PM,88.0,70.0,55,30.10,10.0,South,5.8,-,N/A,,Clear,190,2013-06-09 18:53:00
3:53 PM,87.1,70.0,57,30.09,10.0,SE,3.5,-,N/A,,Partly Cloudy,140,2013-06-09 19:53:00
4:53 PM,86.0,71.1,61,30.07,10.0,Variable,3.5,-,N/A,,Clear,0,2013-06-09 20:53:00
5:53 PM,86.0,71.1,61,30.08,10.0,SSE,3.5,-,N/A,,Partly Cloudy,150,2013-06-09 21:53:00
6:53 PM,81.0,73.0,77,30.09,9.0,Calm,Calm,-,0.00,,Overcast,0,2013-06-09 22:53:00
7:05 PM,80.6,73.4,79,30.10,9.0,Calm,Calm,-,N/A,Thunderstorm,Thunderstorm,0,2013-06-09 23:05:00
7:53 PM,81.0,73.0,77,30.09,10.0,Calm,Calm,-,N/A,Thunderstorm,Partly Cloudy,0,2013-06-09 23:53:00
8:33 PM,78.8,69.8,74,30.11,10.0,South,6.9,17.3,N/A,,Mostly Cloudy,170,2013-06-10 00:33:00
8:48 PM,73.4,66.2,78,30.11,1.8,South,10.4,26.5,0.27,Rain,Heavy Rain,170,2013-06-10 00:48:00
8:53 PM,72.0,66.0,81,30.11,2.0,SSE,6.9,24.2,0.29,Rain,Rain,160,2013-06-10 00:53:00
9:02 PM,73.4,66.2,78,30.12,10.0,South,4.6,-,0.00,Rain,Light Rain,190,2013-06-10 01:02:00
9:53 PM,73.9,71.1,91,30.13,8.0,Calm,Calm,-,0.00,Rain,Light Rain,0,2013-06-10 01:53:00
10:10 PM,73.4,71.6,94,30.14,9.0,Calm,Calm,-,0.00,,Mostly Cloudy,0,2013-06-10 02:10:00
10:18 PM,73.4,71.6,94,30.13,5.0,Calm,Calm,-,0.00,,Mostly Cloudy,0,2013-06-10 02:18:00
10:53 PM,73.0,72.0,96,30.13,4.0,Calm,Calm,-,0.01,Rain,Light Rain,0,2013-06-10 02:53:00
11:53 PM,75.0,73.0,94,30.12,7.0,Calm,Calm,-,0.00,,Overcast,0,2013-06-10 03:53:00